Terminal Aerodrome Forecast
Issued by NWS Rapid City, SD

Home | Current Version | Previous Version | Graphics & Text | Print | Product List | Glossary On
Versions: 1 2 3 4 5 6 7 8 9 10 11 12 13 14 15 16 17 18 19 20 21 22 23
000
FTUS43 KUNR 061624 AAD
TAFRAP
TAF AMD
KRAP 061624Z 0616/0712 14007KT P6SM -RA SCT007 OVC012
      TEMPO 0616/0619 2SM -RA BR OVC005
     FM062200 32017G27KT 6SM -TSRA OVC015CB=

USA.gov is the U.S. government's official web portal to all federal, state and local government web resources and services.